Total_Precipitation_Accumulation
3.78 3.52 3.64 3.15 2.67 2.39 2.37 2.48 2.48 2.60 2.54 2.59 2.64 2.53 2.54 2.57 2.69 2.77 2.78 2.79 2.81 3.04 3.26 3.58 3.89 4.19 4.29 4.45 4.32 4.08 3.74 3.30 2.88 2.56 2.27 2.12 2.22 2.51 2.73 2.95 2.85 2.18 2.08
2.75 2.75 2.98 2.62 2.36 2.25 2.26 2.51 2.62 2.64 2.61 2.63 2.68 2.64 2.63 2.68 2.76 2.77 2.76 2.75 2.87 3.00 3.10 3.38 3.63 3.82 3.90 3.96 3.88 3.69 3.45 3.48 3.18 2.81 2.57 2.25 2.32 2.52 2.73 2.86 2.86 2.21 2.22
1.76 1.98 2.19 2.27 2.20 2.11 2.15 2.56 2.80 2.62 2.57 2.63 2.78 2.79 2.85 2.84 2.77 2.79 2.79 2.84 3.01 3.06 3.08 3.31 3.52 3.61 3.50 3.56 3.44 3.33 3.28 3.59 3.55 3.33 3.16 2.15 1.88 2.36 2.60 2.60 2.41 2.07 2.08
1.43 1.61 1.81 2.05 1.97 1.88 1.93 2.09 2.37 2.41 2.36 2.55 2.86 2.99 3.02 2.94 2.86 2.85 2.77 2.90 3.13 3.27 3.35 3.43 3.43 3.47 3.32 3.22 3.11 3.06 3.23 3.56 3.58 3.65 3.30 2.27 1.61 2.03 2.38 2.29 2.06 1.90 1.82
1.32 1.55 1.79 1.84 1.72 1.60 1.60 1.75 2.09 2.25 2.30 2.50 2.72 2.91 2.99 2.92 2.90 2.83 2.79 2.94 3.18 3.52 3.62 3.49 3.28 3.08 3.01 2.95 2.85 2.92 3.20 3.65 3.68 3.24 2.68 2.26 1.89 2.07 2.18 2.10 1.97 1.92 1.79
1.20 1.26 1.40 1.57 1.50 1.48 1.54 1.62 1.78 1.98 2.17 2.50 2.76 2.89 2.98 2.96 2.93 2.88 2.88 3.01 3.30 3.64 3.65 3.45 3.20 2.87 2.69 2.49 2.50 2.72 2.99 3.54 3.48 2.63 2.24 2.11 1.83 1.95 2.10 2.22 2.19 2.21 1.99
0.94 0.98 1.07 1.26 1.30 1.40 1.49 1.58 1.72 1.96 2.10 2.31 2.71 3.04 3.13 3.05 3.09 3.05 3.02 3.19 3.35 3.45 3.36 3.22 2.89 2.65 2.50 2.41 2.40 2.52 2.79 3.12 2.94 2.34 2.24 2.24 1.84 1.81 2.05 2.27 2.37 2.37 2.17
0.76 0.91 1.06 1.21 1.29 1.33 1.32 1.50 1.75 2.01 2.20 2.43 2.63 2.80 2.93 2.94 2.98 3.09 3.16 3.31 3.30 3.23 3.04 2.86 2.60 2.50 2.42 2.39 2.38 2.41 2.57 2.54 2.19 2.13 2.02 1.97 1.65 1.74 2.02 2.18 2.26 2.32 2.23
0.94 1.06 1.22 1.31 1.36 1.47 1.59 1.78 2.01 2.22 2.53 2.69 2.66 2.61 2.72 2.79 2.79 2.87 3.04 3.20 3.24 3.06 2.75 2.67 2.58 2.54 2.43 2.36 2.38 2.44 2.53 2.48 2.14 2.10 1.85 1.89 1.84 1.97 2.13 2.27 2.34 2.30 2.16
1.35 1.27 1.34 1.48 1.58 1.53 1.73 2.18 2.47 2.65 2.73 2.70 2.55 2.52 2.65 2.80 2.87 2.98 3.02 3.25 3.39 3.18 2.79 2.84 2.79 2.64 2.56 2.56 2.67 2.71 2.78 2.51 2.09 2.04 2.11 1.78 1.95 2.29 2.52 2.56 2.56 2.55 2.29
1.76 1.48 1.37 1.27 1.43 1.58 1.68 1.92 2.34 2.60 2.73 2.76 2.85 2.84 2.98 3.16 3.10 3.40 3.40 3.72 3.73 3.43 3.21 3.22 3.07 3.05 2.84 2.81 3.10 3.15 2.83 2.41 2.24 2.22 2.13 1.81 1.89 2.36 2.76 2.87 2.89 2.92 2.72
1.88 1.70 1.56 1.51 1.49 1.61 1.61 1.94 2.44 2.41 2.60 2.84 3.19 3.30 3.49 3.63 3.58 3.18 3.80 4.34 4.25 4.04 3.88 3.87 3.71 3.42 2.95 2.86 3.58 3.54 2.53 2.37 2.40 2.29 2.11 1.95 2.04 2.52 2.97 3.04 3.07 3.10 3.08
2.12 1.91 1.71 1.69 1.76 1.75 1.95 2.01 2.34 2.64 2.93 3.06 3.17 3.31 3.52 3.44 3.30 3.31 3.90 4.30 4.31 4.16 4.24 4.42 4.17 3.61 3.46 3.50 3.58 3.27 2.49 2.42 2.78 2.68 2.68 2.54 2.58 3.03 3.48 3.44 3.32 3.21 3.19
2.17 2.17 2.07 2.01 2.03 2.07 2.00 2.25 2.32 2.43 2.67 2.99 3.20 3.17 3.32 3.69 3.73 3.73 4.00 3.96 4.07 4.15 4.67 4.55 4.56 4.21 3.82 3.50 3.31 3.08 2.81 2.73 2.87 3.05 3.17 2.78 2.80 3.26 3.86 3.91 3.62 3.47 3.33
2.55 2.53 2.36 2.30 2.41 2.39 2.45 2.58 2.41 2.59 2.73 2.90 3.10 3.22 3.23 3.54 3.78 3.93 4.05 4.08 3.68 3.64 4.10 4.53 4.36 4.34 4.26 4.01 3.54 3.30 3.18 3.11 2.97 3.22 3.46 3.23 3.08 3.29 3.81 4.17 4.12 3.94 3.79
2.82 2.71 2.56 2.56 2.70 2.76 2.81 2.98 2.97 2.83 2.99 2.89 3.13 3.17 3.21 3.37 3.66 3.99 4.13 4.19 3.80 3.61 3.90 4.24 4.15 4.37 4.23 4.19 3.75 3.44 3.30 3.13 2.86 3.03 3.39 3.48 3.22 3.15 3.50 4.13 4.53 4.46 4.37
3.21 3.08 2.90 2.86 3.02 3.28 3.45 3.50 3.39 3.19 2.94 2.95 3.11 3.12 3.22 3.28 3.64 3.75 3.84 3.95 3.91 3.70 3.88 4.07 4.11 4.26 4.06 3.86 3.83 3.71 3.55 3.41 3.02 3.00 3.19 3.49 3.30 3.15 3.31 3.75 4.27 4.45 4.45
3.34 3.32 3.10 2.89 3.32 3.73 3.89 3.94 3.73 3.46 3.08 3.05 3.11 3.19 3.32 3.44 3.62 3.87 3.69 3.72 4.07 3.92 4.07 4.44 4.37 4.43 4.55 4.39 4.14 3.79 3.58 3.62 3.11 3.08 3.23 3.51 3.73 3.27 3.42 3.79 4.11 4.23 4.51
3.42 3.40 3.39 3.51 3.65 3.82 3.95 4.11 3.88 3.67 3.47 3.23 3.16 3.19 3.36 3.50 3.60 4.01 4.11 4.20 4.16 4.11 4.20 3.86 4.43 4.73 4.81 4.64 4.04 3.81 3.50 3.46 3.26 3.08 3.20 3.08 3.32 3.34 3.39 3.55 3.91 4.01 4.43
3.53 3.67 3.64 3.78 3.98 4.29 4.50 4.72 4.37 4.02 3.75 3.49 3.32 3.41 3.46 3.69 3.80 4.16 4.25 4.27 4.09 4.23 4.28 4.30 4.71 4.70 4.41 4.41 3.66 3.42 3.33 3.12 3.04 3.01 2.77 2.80 2.94 2.87 3.09 3.25 3.67 3.28 3.64
3.73 3.91 3.94 4.19 4.65 5.02 4.87 4.57 4.45 4.26 4.05 3.80 3.53 3.45 3.53 3.52 3.70 4.11 4.01 4.39 4.28 4.13 4.07 4.10 4.49 4.58 4.25 4.40 4.42 4.03 3.43 2.86 2.76 2.61 2.57 2.74 2.69 2.73 3.00 3.39 3.84 3.78 3.47
3.77 4.20 4.35 4.57 4.97 5.14 5.00 4.89 4.80 4.73 4.31 4.19 4.03 3.89 3.50 3.33 3.46 3.51 3.91 3.79 3.91 4.11 4.04 4.20 4.49 4.35 4.01 4.48 4.76 5.03 4.43 3.90 3.05 2.36 2.66 2.83 2.88 3.11 3.08 3.25 3.72 4.04 3.85
3.05 3.32 3.64 4.17 4.72 4.94 5.03 4.94 4.91 4.96 4.51 4.27 4.15 3.98 3.57 3.31 3.22 3.36 3.56 3.70 3.85 3.77 3.93 4.10 4.13 4.23 4.20 4.35 4.60 5.05 4.74 4.17 3.48 2.74 2.53 2.65 3.01 3.29 3.20 3.25 3.24 3.55 3.63
2.33 2.65 3.10 3.61 4.00 4.24 4.34 4.35 4.41 4.40 4.33 4.25 4.15 3.78 3.57 3.31 3.19 3.25 3.37 3.51 3.64 3.47 3.72 3.49 3.57 4.09 4.30 4.15 4.31 4.23 4.22 4.13 3.93 3.33 2.78 2.56 2.73 2.86 2.95 2.81 2.80 3.10 3.40
2.17 2.49 2.81 3.19 3.52 3.69 3.79 3.89 4.02 3.92 3.96 3.85 3.76 3.59 3.38 3.24 3.10 2.85 3.00 3.27 3.39 3.29 3.30 3.37 3.62 3.70 3.67 3.73 3.89 3.93 4.01 4.05 3.72 3.51 3.10 2.75 2.55 2.31 2.42 2.52 2.56 2.68 2.88
2.29 2.64 2.91 3.17 3.43 3.51 3.31 3.21 3.28 3.35 3.43 3.40 3.25 3.10 2.89 2.87 2.82 2.67 2.74 3.04 3.14 3.12 3.13 3.15 3.29 3.36 3.42 3.48 3.56 3.57 3.77 3.83 3.79 3.86 3.36 2.92 2.63 2.08 2.03 2.24 2.35 2.45 2.69